Simultaneous Nadir Overpasses (SNOs) Predictions

Prediction of SNOs between GOES-15 and METOP-C Satellite Orbit:

Table of predicted SNOs for the next 14.0 days since TLE Epoch: 11/8/2022
Index Date Time (GOES-15) GOES-15 Lat,Lon METOP-C Lat,Lon Distance(km) Time Diff (sec)
1 11/08/2022 05:50:39 0.24,-128.38 0.94,-125.31 351.12 15
2 11/09/2022 18:08:26 -0.24,-128.37 0.10,-129.86 169.90 80
3 11/10/2022 17:50:27 -0.24,-128.36 -1.04,-124.87 398.28 80
4 11/12/2022 06:09:27 0.23,-128.34 -0.05,-129.45 127.19 80
5 11/13/2022 05:46:08 0.23,-128.32 1.10,-124.47 440.08 80
6 11/14/2022 18:05:01 -0.22,-128.30 -0.05,-129.02 82.51 80
7 11/15/2022 17:47:02 -0.22,-128.28 -1.20,-124.03 485.18 80
8 11/17/2022 06:06:01 0.21,-128.26 0.14,-128.62 40.01 80
9 11/19/2022 18:01:35 -0.21,-128.21 -0.24,-128.19 4.30 80
